Regional Weather Roundup
Issued by NWS

Home | Current Version | Previous Version | Graphics & Text | Print | Product List | Glossary On
Versions: 1 2 3 4 5 6 7 8 9 10 11 12 13 14 15 16 17 18 19 20 21 22 23 24 25 26 27 28 29 30 31 32 33 34 35 36 37 38 39 40 41 42 43 44 45 46 47 48 49 50
000
ASUS43 KLSX 270559
RWRMO

WEATHER SUMMARY FOR MISSOURI
NATIONAL WEATHER SERVICE SPRINGFIELD MO
100 AM CDT FRI MAR 27 2015

NOTE: "FAIR" INDICATES FEW OR NO CLOUDS BELOW 12,000 FEET WITH NO
       SIGNIFICANT WEATHER AND/OR OBSTRUCTIONS TO VISIBILITY.
       CURRENT SKY AND/OR WEATHER CONDITIONS ARE NOT AVAILABLE FOR
       CHILLICOTHE AND FARMINGTON.

MOZ001>031-035>038-043-044-053-054-270700-
...NORTHERN AND WESTERN MISSOURI...

CITY           SKY/WX    TMP DP  RH WIND       PRES   REMARKS
KANSAS CTY INT CLOUDY    36  33  89 N15       30.15S WCI  27
6HR MIN TEMP:  36; 6HR MAX TEMP:  48; 6HR PCP:  0.01;

KANSAS C DTWN  CLOUDY    40  35  83 NE9       30.16S
6HR MIN TEMP:  40; 6HR MAX TEMP:  50; 6HR PCP:  0.01;

LEE`S SUMMIT   CLOUDY    38  34  85 N12       30.14F
6HR MIN TEMP:  38; 6HR MAX TEMP:  48; 6HR PCP:  0.02;

ST JOSEPH      CLOUDY    37  33  85 N10       30.19S WCI  30
6HR MIN TEMP:  36; 6HR MAX TEMP:  48; 6HR PCP: TRACE;

CHILLICOTHE      N/A     38  32  79 N8        30.17R
6HR MIN TEMP:  38; 6HR MAX TEMP:  49;

KIRKSVILLE     CLOUDY    35  30  82 N10       30.14R WCI  27
6HR MIN TEMP:  35; 6HR MAX TEMP:  46; 6HR PCP: TRACE;


$$
MOZ066>068-077>081-088>096-101>105-270700-
...SOUTHWEST MISSOURI...

CITY           SKY/WX    TMP DP  RH WIND       PRES   REMARKS
SPRINGFIELD    CLOUDY    41  31  67 CALM      30.08R
6HR MIN TEMP:  35; 6HR MAX TEMP:  49;

JOPLIN         LGT RAIN  41  37  86 NE12      30.11S
6HR MIN TEMP:  41; 6HR MAX TEMP:  50; 6HR PCP:  0.01;


$$
MOZ032>034-039>042-045>050-055>058-069>072-270700-
...CENTRAL MISSOURI...

CITY           SKY/WX    TMP DP  RH WIND       PRES   REMARKS
COLUMBIA       CLOUDY    41  29  62 N16       30.08R
6HR MIN TEMP:  40; 6HR MAX TEMP:  47;

JEFFERSON CITY CLOUDY    40  33  76 NW5       30.09R
6HR MIN TEMP:  40; 6HR MAX TEMP:  49;

ROLLA          CLOUDY    40  29  64 MISG      30.03F
6HR MIN TEMP:  37; 6HR MAX TEMP:  46;

SEDALIA        LGT RAIN  41  32  70 N16       30.12R
6HR MIN TEMP:  41; 6HR MAX TEMP:  49; 6HR PCP: TRACE;

OSAGE BEACH    CLOUDY    39  30  70 W5        30.08R

$$
MOZ051-052-059>065-270700-
...EAST CENTRAL MISSOURI...

CITY           SKY/WX    TMP DP  RH WIND       PRES   REMARKS
ST LOUIS INTL  MOCLDY    42  27  55 N8        30.05F
6HR MIN TEMP:  38; 6HR MAX TEMP:  48;

SPIRIT OF STL  MOCLDY    34  31  88 CALM      30.04F
6HR MIN TEMP:  33; 6HR MAX TEMP:  48;

ST CHARLES     MOCLDY    41  27  57 N13       30.04F
6HR MIN TEMP:  37; 6HR MAX TEMP:  47; 6HR PCP: TRACE;


$$
MOZ072>076-082>087-097>100-106>115-270700-
...SOUTH CENTRAL AND SOUTHEAST MISSOURI...

CITY           SKY/WX    TMP DP  RH WIND       PRES   REMARKS
CAPE GIRARDEAU CLEAR     34  33  96 CALM      30.05F
6HR MIN TEMP:  34; 6HR MAX TEMP:  45;

FARMINGTON     PTCLDY    34  27  75 CALM      30.06F
6HR MIN TEMP:  34; 6HR MAX TEMP:  46;

POPLAR BLUFF   CLEAR     37  34  89 CALM      30.04F
6HR MIN TEMP:  37; 6HR MAX TEMP:  50;

WEST PLAINS    MOCLDY    36  27  69 MISG      30.04F
6HR MIN TEMP:  34; 6HR MAX TEMP:  49;


$$


USA.gov is the U.S. government's official web portal to all federal, state and local government web resources and services.